Location: Kershaw
(34.5481°N, 80.5823°W)
Time: 12:55:10
(UTC+00:00)

Tiros 1 despin weight - Pass Details

Date: 05 October 2022
Orbit: 590 x 637 km, 48.2° (Epoch: 25 November)

Event Time Altitude Azimuth Distance (km) Brightness Sun altitude
Rises 01:21:24 0° 313° (NW) 2,887 ? -29.3°
Reaches altitude 10° 01:24:00 10° 325° (NW) 1,989 ? -29.8°
Enters shadow 01:26:01 20° 346° (NNW) 1,430 ? -30.2°
Maximum altitude 01:27:54 27° 24° (NNE) 1,211 - -30.5°
Drops below altitude 10° 01:31:50 10° 82° (E) 2,007 - -31.3°
Sets 01:34:28 0° 95° (E) 2,919 - -31.8°
